Current weather by "City, St" or "zip code"  
 

Current Conditions: Huntington, Tri-State Airport, WV

Fair


29.0 F

Last Updated on Apr 23 2021, 5:51 am EDT
Humidity: 85%
Wind Speed: N 0.0 mph
Barometer 30.16 in
Dewpoint: 25.0 F
Visibility: 10.00 mi
Precip: --
Heat Index: NA
Wind Chill: NA
Current conditions at:

Huntington, Tri-State Airport, WV (KHTS)

Lat: 38.365 Lon: 82.555

Local Radar Image active severe weather and emergency alerts image image weather storm and storm spotter reports image weather observation monitoring service image
Local
Radar
Active
Alerts
Storm Reports Obs
Monitoring

Sign-up For Email & Text Message Weather Alert Notification Services



Advertise Here

Observation History for Huntington, Tri-State Airport, WV


Time Wind
(mph)
Vis
(mi)
Weather Precip (in) Temperature (F) Relative
Humidity
Wind
Chill
(F)
Heat
Index
(F)
Pressure
Air Dwpt altimeter
(in)
sea level
(mb)
Rmks
5:51 am EDT N 0.0 10.00 Fair -- 29.0 25.0 85% NA NA 30.16 1021.7
4:51 am EDT N 0.0 10.00 Fair -- 30.0 25.0 82% NA NA 30.16 1021.6
3:51 am EDT N 0.0 10.00 Fair -- 31.0 25.0 79% NA NA 30.16 1021.7
2:51 am EDT N 0.0 10.00 Fair -- 32.0 26.1 79% NA NA 30.17 1022.0
1:51 am EDT N 0.0 10.00 Fair -- 35.0 25.0 67% NA NA 30.16 1021.9
12:51 am EDT N 0.0 10.00 Fair -- 36.0 27.0 70% NA NA 30.17 1022.1
11:51 pm EDT N 0.0 10.00 Fair -- 38.0 26.1 62% NA NA 30.17 1022.1
10:51 pm EDT S 3.5 10.00 Fair -- 40.0 24.1 53% NA NA 30.17 1022.0
9:51 pm EDT 3.5 10.00 Fair -- 44.0 23.0 43% NA NA 30.16 1021.7
8:51 pm EDT N 0.0 10.00 Fair -- 45.0 23.0 42% NA NA 30.14 1021.0
7:51 pm EDT 5.8 10.00 A Few Clouds -- 48.0 24.1 39% 45 NA 30.13 1020.5
6:51 pm EDT W 9.2 10.00 Mostly Cloudy -- 50.0 25.0 38% 46 NA 30.12 1020.4
5:51 pm EDT W 9.2 10.00 Overcast -- 48.0 28.0 46% 44 NA 30.12 1020.3
4:51 pm EDT W 8.1 10.00 Mostly Cloudy -- 49.0 32.0 52% 46 NA 30.12 1020.3
3:51 pm EDT SW 8.1 10.00 Mostly Cloudy -- 47.0 35.1 63% 43 NA 30.14 1021.0
2:51 pm EDT W 8.1 10.00 Mostly Cloudy 00.01 43.0 37.0 80% 38 NA 30.17 1022.2
1:51 pm EDT SW 11.5 G 23.0 4.00 Light Rain Trace 40.0 33.1 77% 33 NA 30.16 1021.9
12:51 pm EDT N 10.4 10.00 Mostly Cloudy -- 45.0 33.1 63% 40 NA 30.16 1021.8
11:51 am EDT NW 9.2 10.00 Mostly Cloudy -- 43.0 33.1 68% 38 NA 30.18 1022.2
10:51 am EDT N 6.9 10.00 Partly Cloudy -- 42.0 32.0 68% 38 NA 30.17 1022.0
9:51 am EDT N 0.0 10.00 Overcast -- 38.0 30.9 76% NA NA 30.17 1022.1
8:51 am EDT SW 5.8 10.00 Overcast -- 35.0 30.0 82% 30 NA 30.16 1021.8
7:51 am EDT N 0.0 10.00 Overcast -- 32.0 28.9 88% NA NA 30.15 1021.4
6:51 am EDT S 3.5 10.00 Overcast -- 31.0 28.0 89% NA NA 30.13 1020.7

Regional Weather Observation


Greater Portsmouth Regional Airport, OH (KPMH)

Fair
NULL F

Huntington, Tri-State Airport, WV (KHTS)

Fair
29.0 F

James A Rhodes Airport, OH (KI43)

Fair
27.0 F

Point Pleasant, Mason County Airport, WV (K3I2)

Fair
28.0 F

Clyde A. Thomas Regional Airport, KY (KSYM)

Fair
30.0 F

Flemingsburg Fleming-Mason Airport, KY (KFGX)

Fair
33.0 F

Advertise Here


Advertise Here